| time (UTC) | temp C | wind direction | speed KPH | gust KPH | rain 1hr cm | rain 24hr cm | rain mn cm | humidity % | barometer mb |
| 20260505021613 | 16 | 207 | 1.6 | 6.4 | 0.00 | 0.00 | 0.00 | 52 | 1007.6 |
| 20260505014559 | 15 | 250 | 3.2 | 11.3 | 0.00 | 0.00 | 0.00 | 54 | 1007.4 |
| 20260505013104 | 14 | 245 | 0.0 | 9.7 | 0.00 | 0.00 | 0.00 | 57 | 1007.1 |
| 20260505011600 | 13 | 0 | 0.0 | 0.0 | 0.00 | 0.00 | 0.00 | 59 | 1006.8 |
| 20260505010105 | 13 | 0 | 0.0 | 0.0 | 0.00 | 0.00 | 0.00 | 57 | 1006.3 |
| 20260505004605 | 14 | 0 | 0.0 | 0.0 | 0.00 | 0.00 | 0.00 | 53 | 1006.1 |
| 20260505003058 | 15 | 0 | 0.0 | 0.0 | 0.00 | 0.00 | 0.00 | 52 | 1005.8 |
| 20260505001559 | 16 | 0 | 0.0 | 0.0 | 0.00 | 0.00 | 0.00 | 47 | 1005.6 |
| 20260505000058 | 17 | 0 | 0.0 | 0.0 | 0.00 | 0.00 | 0.00 | 44 | 1005.3 |
| 20260504234600 | 18 | 0 | 0.0 | 0.0 | 0.00 | 0.00 | 0.00 | 41 | 1005.2 |
| 20260504233102 | 19 | 0 | 0.0 | 4.8 | 0.00 | 0.00 | 0.00 | 37 | 1005.0 |
| 20260504231557 | 20 | 323 | 1.6 | 8.0 | 0.00 | 0.00 | 0.00 | 38 | 1004.9 |
| 20260504230103 | 20 | 73 | 0.0 | 4.8 | 0.00 | 0.00 | 0.00 | 36 | 1004.6 |
| 20260504224559 | 21 | 217 | 0.0 | 11.3 | 0.00 | 0.00 | 0.00 | 35 | 1004.4 |
| 20260504223104 | 21 | 145 | 3.2 | 11.3 | 0.00 | 0.00 | 0.00 | 33 | 1004.3 |
| 20260504221607 | 21 | 206 | 3.2 | 8.0 | 0.00 | 0.00 | 0.00 | 34 | 1004.3 |
| 20260504220135 | 21 | 311 | 3.2 | 9.7 | 0.00 | 0.00 | 0.00 | 34 | 1004.4 |
| 20260504214558 | 21 | 245 | 4.8 | 11.3 | 0.00 | 0.00 | 0.00 | 34 | 1004.4 |
| 20260504213128 | 21 | 259 | 3.2 | 6.4 | 0.00 | 0.00 | 0.00 | 33 | 1004.2 |
| 20260504211600 | 21 | 263 | 4.8 | 14.5 | 0.00 | 0.00 | 0.00 | 33 | 1004.2 |
| 20260504210104 | 21 | 133 | 4.8 | 9.7 | 0.00 | 0.00 | 0.00 | 34 | 1004.3 |
| 20260504204619 | 21 | 271 | 1.6 | 14.5 | 0.00 | 0.00 | 0.00 | 33 | 1004.2 |
| 20260504203100 | 22 | 266 | 6.4 | 19.3 | 0.00 | 0.00 | 0.00 | 32 | 1004.2 |
| 20260504201609 | 22 | 281 | 3.2 | 11.3 | 0.00 | 0.00 | 0.00 | 31 | 1004.2 |
| 20260504200111 | 22 | 255 | 4.8 | 17.7 | 0.00 | 0.00 | 0.00 | 31 | 1004.2 |
| 20260504194558 | 21 | 315 | 4.8 | 14.5 | 0.00 | 0.00 | 0.00 | 34 | 1004.3 |
| 20260504193103 | 22 | 260 | 4.8 | 16.1 | 0.00 | 0.00 | 0.00 | 31 | 1004.3 |
| 20260504191559 | 21 | 218 | 6.4 | 16.1 | 0.00 | 0.00 | 0.00 | 32 | 1004.3 |
| 20260504190101 | 21 | 20 | 9.7 | 25.7 | 0.00 | 0.00 | 0.00 | 31 | 1004.2 |
| 20260504184602 | 21 | 66 | 4.8 | 11.3 | 0.00 | 0.00 | 0.00 | 32 | 1004.4 |
| 20260504183105 | 21 | 228 | 4.8 | 16.1 | 0.00 | 0.00 | 0.00 | 31 | 1004.7 |
| 20260504181614 | 20 | 142 | 4.8 | 12.9 | 0.00 | 0.00 | 0.00 | 31 | 1004.6 |
| 20260504180059 | 22 | 243 | 3.2 | 14.5 | 0.00 | 0.00 | 0.00 | 29 | 1004.7 |
| 20260504174559 | 22 | 205 | 8.0 | 19.3 | 0.00 | 0.00 | 0.00 | 29 | 1004.7 |
| 20260504173101 | 21 | 233 | 6.4 | 20.9 | 0.00 | 0.00 | 0.00 | 31 | 1004.6 |
| 20260504171606 | 21 | 310 | 3.2 | 14.5 | 0.00 | 0.00 | 0.00 | 32 | 1004.9 |
| 20260504100103 | 3 | 0 | 0.0 | 0.0 | 0.00 | 0.03 | 0.00 | 76 | 1008.3 |
| 20260504081600 | 5 | 0 | 0.0 | 0.0 | 0.00 | 0.03 | 0.00 | 73 | 1008.2 |
| 20260504044557 | 2 | 0 | 0.0 | 0.0 | 0.00 | 0.03 | 0.00 | 82 | 1008.2 |
| 20260504043100 | 2 | 0 | 0.0 | 0.0 | 0.00 | 0.03 | 0.00 | 80 | 1008.2 |
| 20260504041559 | 2 | 0 | 0.0 | 1.6 | 0.00 | 0.03 | 0.00 | 82 | 1008.2 |
| 20260504040100 | 2 | 0 | 0.0 | 0.0 | 0.00 | 0.03 | 0.00 | 83 | 1008.1 |
| 20260504034559 | 2 | 0 | 0.0 | 0.0 | 0.00 | 0.03 | 0.03 | 84 | 1007.9 |
| 20260504033102 | 2 | 0 | 0.0 | 1.6 | 0.00 | 0.03 | 0.03 | 85 | 1007.8 |
| 20260504031602 | 2 | 0 | 0.0 | 0.0 | 0.00 | 0.03 | 0.03 | 83 | 1007.7 |
| 20260504030107 | 2 | 0 | 0.0 | 0.0 | 0.00 | 0.03 | 0.03 | 82 | 1007.7 |
| 20260504024602 | 2 | 0 | 0.0 | 0.0 | 0.00 | 0.03 | 0.03 | 82 | 1007.7 |
| 20260504023059 | 2 | 0 | 0.0 | 1.6 | 0.00 | 0.03 | 0.03 | 80 | 1007.7 |